Tracking 33203 objects as of 15-Feb-2026
HD Live streaming from Space Station
objects crossing your sky now

ASAP-S

Track ASAP-S now!
10-day predictions
ASAP-S is classified as:


NORAD ID: 38013
Int'l Code: 2011-076G
Perigee: 502.4 km
Apogee: 510.4 km
Inclination: 98.0 °
Period: 94.6 minutes
Semi major axis: 6877 km
RCS: 2.764 m2 (large)
Launch date: December 17, 2011
Source: France (FR)
Launch site: FRENCH GUIANA (FRGUI)
Your satellite tracking list
Your tracking list is empty




NASA's NSSDC Master Catalog

Two Line Element Set (TLE):
1 38013U 11076G   26046.36492221  .00014640  00000-0  64009-3 0  9994
2 38013  98.0181 328.2514 0005816 202.4379 157.6602 15.22184974774284
Source of the keplerian elements: AFSPC